• în România
  • Lista ţărilor
  • Pe 7 zile
  • Temperatura apei
  • Hartă satelitară
  • Meteo pe hartă
  • Widget-uri
  • user-avatar
    Intrare

    Meteo pe oră la Shkoder

    Astăzi, 20 Februarie, Luni

    Timp Temperatura Precipitaţii Vânt Presiune Umiditate
    00:00 +2°C° 0,1 mm 2 m/s 744 mmHg 90%
    01:00 +2°C° 0,1 mm 2 m/s 744 mmHg 90%
    02:00 +1°C° 0 mm 2 m/s 744 mmHg 90%
    03:00 -1°C° 0 mm 2 m/s 744 mmHg 89%
    04:00 -1°C° 0 mm 2 m/s 744 mmHg 89%
    05:00 -1°C° 0 mm 2 m/s 744 mmHg 88%
    06:00 -1°C° 0 mm 2 m/s 744 mmHg 87%
    07:00 -1°C° 0 mm 2 m/s 744 mmHg 87%
    08:00 +2°C° 0 mm 2 m/s 744 mmHg 82%
    09:00 +6°C° 0 mm 1 m/s 744 mmHg 78%
    10:00 +8°C° 0 mm 1 m/s 744 mmHg 74%
    11:00 +9°C° 0 mm 1 m/s 744 mmHg 72%
    12:00 +9°C° 0 mm 1 m/s 744 mmHg 71%
    13:00 +9°C° 0 mm 0 m/s 744 mmHg 69%
    14:00 +10°C° 0 mm 1 m/s 743 mmHg 72%
    15:00 +9°C° 0 mm 1 m/s 743 mmHg 75%
    16:00 +9°C° 0 mm 1 m/s 743 mmHg 77%
    17:00 +7°C° 0 mm 1 m/s 743 mmHg 81%
    18:00 +5°C° 0 mm 1 m/s 743 mmHg 85%
    19:00 +3°C° 0 mm 1 m/s 743 mmHg 89%
    20:00 +3°C° 0 mm 1 m/s 743 mmHg 88%
    21:00 +3°C° 0 mm 1 m/s 743 mmHg 88%
    22:00 +1°C° 0 mm 2 m/s 743 mmHg 87%
    23:00 +1°C° 0 mm 2 m/s 743 mmHg 87%

    Mâine, 21 Februarie, Marţi

    Timp Temperatura Precipitaţii Vânt Presiune Umiditate
    00:00 +1°C° 0 mm 2 m/s 743 mmHg 86%
    01:00 +1°C° 0 mm 2 m/s 743 mmHg 86%
    02:00 -1°C° 0 mm 2 m/s 743 mmHg 84%
    03:00 -1°C° 0 mm 2 m/s 743 mmHg 82%
    04:00 -1°C° 0 mm 2 m/s 742 mmHg 80%
    05:00 -1°C° 0 mm 2 m/s 742 mmHg 77%
    06:00 +2°C° 0 mm 1 m/s 742 mmHg 75%
    07:00 +2°C° 0 mm 1 m/s 742 mmHg 72%
    08:00 +4°C° 0 mm 1 m/s 742 mmHg 69%
    09:00 +7°C° 0 mm 1 m/s 742 mmHg 65%
    10:00 +8°C° 0 mm 0 m/s 742 mmHg 61%
    11:00 +10°C° 0 mm 1 m/s 742 mmHg 63%
    12:00 +10°C° 0 mm 1 m/s 742 mmHg 64%
    13:00 +10°C° 0 mm 2 m/s 741 mmHg 65%
    14:00 +10°C° 0 mm 2 m/s 741 mmHg 70%
    15:00 +9°C° 0 mm 2 m/s 741 mmHg 74%
    16:00 +9°C° 0 mm 2 m/s 741 mmHg 78%
    17:00 +8°C° 0 mm 1 m/s 741 mmHg 82%
    18:00 +7°C° 0 mm 1 m/s 741 mmHg 85%
    19:00 +5°C° 0 mm 1 m/s 742 mmHg 88%
    20:00 +5°C° 0 mm 1 m/s 742 mmHg 87%
    21:00 +5°C° 0 mm 1 m/s 742 mmHg 86%
    22:00 +5°C° 0 mm 1 m/s 742 mmHg 85%
    23:00 +5°C° 0 mm 1 m/s 742 mmHg 85%

    Poimâine, 22 Februarie, Miercuri

    Timp Temperatura Precipitaţii Vânt Presiune Umiditate
    00:00 +5°C° 0 mm 1 m/s 742 mmHg 84%
    01:00 +5°C° 0 mm 1 m/s 742 mmHg 84%
    02:00 +5°C° 0 mm 1 m/s 742 mmHg 84%
    03:00 +5°C° 0 mm 1 m/s 742 mmHg 84%
    04:00 +5°C° 0 mm 1 m/s 741 mmHg 84%
    05:00 +5°C° 0 mm 1 m/s 742 mmHg 85%
    06:00 +5°C° 0 mm 1 m/s 742 mmHg 85%
    07:00 +5°C° 0 mm 1 m/s 742 mmHg 86%
    08:00 +7°C° 0 mm 1 m/s 742 mmHg 82%
    09:00 +10°C° 0 mm 1 m/s 742 mmHg 78%
    10:00 +12°C° 0 mm 1 m/s 742 mmHg 74%
    11:00 +12°C° 0 mm 1 m/s 742 mmHg 74%
    12:00 +13°C° 0 mm 1 m/s 742 mmHg 75%
    13:00 +13°C° 0 mm 2 m/s 741 mmHg 75%
    14:00 +13°C° 0 mm 1 m/s 741 mmHg 79%
    15:00 +12°C° 0 mm 1 m/s 741 mmHg 82%
    16:00 +12°C° 0 mm 1 m/s 741 mmHg 85%
    17:00 +10°C° 0 mm 1 m/s 741 mmHg 89%
    18:00 +9°C° 0 mm 1 m/s 741 mmHg 92%
    19:00 +7°C° 0 mm 1 m/s 741 mmHg 96%
    20:00 +7°C° 0 mm 1 m/s 742 mmHg 95%
    21:00 +6°C° 0 mm 1 m/s 742 mmHg 95%
    22:00 +6°C° 0 mm 1 m/s 742 mmHg 94%
    23:00 +5°C° 0 mm 2 m/s 742 mmHg 93%

    23 Februarie, Joi

    Timp Temperatura Precipitaţii Vânt Presiune Umiditate
    00:00 +5°C° 0 mm 2 m/s 742 mmHg 93%
    01:00 +4°C° 0 mm 2 m/s 742 mmHg 92%
    02:00 +4°C° 0 mm 2 m/s 742 mmHg 91%
    03:00 +4°C° 0 mm 2 m/s 741 mmHg 90%
    04:00 +4°C° 0 mm 2 m/s 741 mmHg 89%
    05:00 +4°C° 0 mm 2 m/s 741 mmHg 88%
    06:00 +4°C° 0 mm 2 m/s 741 mmHg 87%
    07:00 +4°C° 0 mm 2 m/s 742 mmHg 86%
    08:00 +6°C° 0 mm 2 m/s 742 mmHg 82%
    09:00 +9°C° 0 mm 2 m/s 742 mmHg 79%
    10:00 +12°C° 0 mm 2 m/s 742 mmHg 75%
    11:00 +12°C° 0 mm 2 m/s 741 mmHg 75%
    12:00 +13°C° 0 mm 2 m/s 741 mmHg 74%
    13:00 +13°C° 0 mm 2 m/s 740 mmHg 74%
    14:00 +13°C° 0 mm 2 m/s 740 mmHg 77%
    15:00 +12°C° 0 mm 2 m/s 740 mmHg 79%
    16:00 +12°C° 0 mm 2 m/s 740 mmHg 82%
    17:00 +10°C° 0 mm 2 m/s 740 mmHg 85%
    18:00 +9°C° 0 mm 2 m/s 740 mmHg 87%
    19:00 +8°C° 0 mm 2 m/s 740 mmHg 90%
    20:00 +8°C° 0,1 mm 2 m/s 740 mmHg 91%
    21:00 +8°C° 0,1 mm 3 m/s 740 mmHg 93%
    22:00 +9°C° 0,1 mm 3 m/s 740 mmHg 94%
    23:00 +9°C° 0,3 mm 3 m/s 740 mmHg 95%

    24 Februarie, Vineri

    Timp Temperatura Precipitaţii Vânt Presiune Umiditate
    00:00 +9°C° 0,3 mm 3 m/s 740 mmHg 95%
    01:00 +9°C° 0,3 mm 3 m/s 739 mmHg 96%
    02:00 +9°C° 0,3 mm 3 m/s 739 mmHg 96%
    03:00 +8°C° 0,3 mm 4 m/s 738 mmHg 96%
    04:00 +8°C° 0,3 mm 4 m/s 738 mmHg 96%
    05:00 +8°C° 0,2 mm 4 m/s 738 mmHg 95%
    06:00 +8°C° 0,2 mm 4 m/s 737 mmHg 94%
    07:00 +8°C° 0,2 mm 4 m/s 737 mmHg 94%
    08:00 +10°C° 0,2 mm 4 m/s 737 mmHg 91%
    09:00 +9°C° 0,2 mm 5 m/s 736 mmHg 89%
    10:00 +10°C° 0,2 mm 5 m/s 736 mmHg 87%
    11:00 +10°C° 2 mm 5 m/s 735 mmHg 89%
    12:00 +11°C° 2 mm 6 m/s 734 mmHg 91%
    13:00 +11°C° 2 mm 6 m/s 734 mmHg 94%
    14:00 +11°C° 3,5 mm 7 m/s 733 mmHg 94%
    15:00 +11°C° 3,5 mm 7 m/s 732 mmHg 94%
    16:00 +11°C° 3,5 mm 7 m/s 731 mmHg 94%
    17:00 +11°C° 3,1 mm 7 m/s 730 mmHg 94%
    18:00 +11°C° 3,1 mm 7 m/s 729 mmHg 95%
    19:00 +11°C° 3,1 mm 7 m/s 728 mmHg 95%
    20:00 +11°C° 3,7 mm 8 m/s 728 mmHg 95%
    21:00 +11°C° 3,7 mm 9 m/s 728 mmHg 95%
    22:00 +11°C° 3,7 mm 10 m/s 728 mmHg 95%
    23:00 +11°C° 3,7 mm 10 m/s 728 mmHg 95%

    25 Februarie, Sâmbătă

    Timp Temperatura Precipitaţii Vânt Presiune Umiditate
    00:00 +11°C° 3,7 mm 9 m/s 729 mmHg 96%
    01:00 +11°C° 3,7 mm 9 m/s 729 mmHg 96%
    02:00 +10°C° 3,7 mm 8 m/s 729 mmHg 96%
    03:00 +10°C° 3,7 mm 6 m/s 729 mmHg 96%
    04:00 +9°C° 3,7 mm 5 m/s 729 mmHg 96%
    05:00 +8°C° 2,1 mm 5 m/s 730 mmHg 95%
    06:00 +6°C° 2,1 mm 5 m/s 731 mmHg 95%
    07:00 +5°C° 2,1 mm 5 m/s 732 mmHg 94%
    08:00 +3°C° 1,1 mm 6 m/s 734 mmHg 92%
    09:00 +2°C° 1,1 mm 6 m/s 735 mmHg 90%
    10:00 0°C° 1,1 mm 7 m/s 736 mmHg 88%
    11:00 +2°C° 0,2 mm 6 m/s 737 mmHg 85%
    12:00 +2°C° 0,2 mm 6 m/s 738 mmHg 83%
    13:00 +2°C° 0,2 mm 5 m/s 739 mmHg 80%
    14:00 +2°C° 0 mm 5 m/s 740 mmHg 80%
    15:00 +2°C° 0 mm 5 m/s 740 mmHg 80%
    16:00 +3°C° 0 mm 4 m/s 741 mmHg 80%
    17:00 +1°C° 0 mm 4 m/s 742 mmHg 82%
    18:00 -1°C° 0 mm 4 m/s 743 mmHg 84%
    19:00 -2°C° 0 mm 4 m/s 744 mmHg 86%
    20:00 -2°C° 0 mm 4 m/s 745 mmHg 86%
    21:00 -2°C° 0 mm 4 m/s 745 mmHg 86%
    22:00 -2°C° 0 mm 3 m/s 746 mmHg 86%
    23:00 -2°C° 0 mm 3 m/s 746 mmHg 85%
    Arată mai mult